Regional Weather Roundup
Issued by NWS

Home | Current Version | Previous Version | Graphics & Text | Print | Product List | Glossary On
Versions: 1 2 3 4 5 6 7 8 9 10 11 12 13 14 15 16 17 18 19 20 21 22 23 24 25 26 27 28 29 30 31 32 33 34 35 36 37 38 39 40 41 42 43 44 45 46 47 48 49 50
000
ASUS45 KPSR 250010
RWRAZ

ARIZONA REGIONAL HOURLY WEATHER ROUNDUP
NATIONAL WEATHER SERVICE PHOENIX AZ
500 PM MST THU JUL 24 2014

NOTE: FAIR INDICATES FEW OR NO CLOUDS BELOW 12,000 FEET WITH NO
SIGNIFICANT WEATHER AND/OR OBSTRUCTIONS TO VISIBILITY.

AZZ001>003-036-250100-
NORTHWEST ARIZONA

CITY           SKY/WX    TMP DP  RH WIND       PRES   REMARKS
BULLHEAD CITY  SUNNY    115  43   9 S5        29.64F HX 109
KINGMAN        MOSUNNY   92  55  28 SE35G41   29.95R
6HR MIN TEMP:  91; 6HR MAX TEMP: 105;

$$

AZZ004>008-015-016-018-250100-
NORTH CENTRAL ARIZONA

CITY           SKY/WX    TMP DP  RH WIND       PRES   REMARKS
GRAND CANYON   CLOUDY    74  52  46 S12       30.27R
6HR MIN TEMP:  74; 6HR MAX TEMP:  87;

WILLIAMS       CLOUDY    66  52  59 W7        30.35F
PRESCOTT       CLOUDY    80  55  42 N15       30.14R
6HR MIN TEMP:  73; 6HR MAX TEMP:  90; 6HR PCP:  0.05;

FLAGSTAFF      TSTM      65  55  70 N10       30.31S
6HR MIN TEMP:  65; 6HR MAX TEMP:  82; 6HR PCP:  0.03;

PAYSON         MOSUNNY   95  36  12 SW8G20    30.12F
PAGE           MOSUNNY   99  41  13 S7        29.99F
6HR MIN TEMP:  91; 6HR MAX TEMP: 102;

$$

AZZ009>014-017-250100-
NORTHEAST ARIZONA

CITY           SKY/WX    TMP DP  RH WIND       PRES   REMARKS
WINSLOW        CLOUDY    89  52  28 NW22      30.09S
6HR MIN TEMP:  89; 6HR MAX TEMP: 100;

SAINT JOHNS    MOSUNNY   90  42  18 SE6       30.13F
6HR MIN TEMP:  85; 6HR MAX TEMP:  93;

WINDOW ROCK    PTSUNNY   86  37  17 SW7       30.25F
6HR MIN TEMP:  83; 6HR MAX TEMP:  90;

SHOW LOW       PTSUNNY   84  37  18 S9G21     30.24F
$$

AZZ023-250100-
GREATER PHOENIX AREA

CITY           SKY/WX    TMP DP  RH WIND       PRES   REMARKS
PHOENIX        MOSUNNY  114  42   9 SE9       29.69F HX 108
6HR MIN TEMP: 107; 6HR MAX TEMP: 116;

BUCKEYE          N/A    111  45  10 E10       29.70F HX 106
GLENDALE       MOSUNNY  115  39   8 SE6       29.71F HX 108
LUKE AFB       NOT AVBL
6HR MIN TEMP: 107; 6HR MAX TEMP: 113;

DEER VALLEY    SUNNY    110  39   9 SE9       29.73F HX 104
6HR MIN TEMP: 104; 6HR MAX TEMP: 111;

SCOTTSDALE     SUNNY    111  42  10 SW13G21   29.75F HX 105
6HR MIN TEMP: 104; 6HR MAX TEMP: 111;

MESA-FALCON    MOSUNNY  113  37   7 S9        29.72F HX 106
CHANDLER       MOSUNNY  111  41   9 SW9       29.71  HX 105
$$

AZZ027-028-250100-
SOUTHWEST MARICOPA COUNTY AND PINAL COUNTY

CITY           SKY/WX    TMP DP  RH WIND       PRES   REMARKS
CASA GRANDE    SUNNY    111  45  10 SE3       29.75F HX 106
6HR MIN TEMP: 104; 6HR MAX TEMP: 111;

$$

AZZ503-504-507>509-250100-
SOUTHEAST ARIZONA

CITY           SKY/WX    TMP DP  RH WIND       PRES   REMARKS
TUCSON         SUNNY    105  37   9 VRB3      29.87F
6HR MIN TEMP: 103; 6HR MAX TEMP: 107;

DAVIS-MONTHAN  SUNNY    105  44  12 SE9G17    29.85F HX 101
6HR MIN TEMP: 101; 6HR MAX TEMP: 106;

RYAN FIELD       N/A    106  41  11 E5        29.85F HX 100
NOGALES        MOSUNNY   98  45  16 S9        29.98F
SIERRA VISTA   MOSUNNY   93  41  16 VRB6      30.08F
DOUGLAS        MOSUNNY   95  44  17 VRB3      30.02F
6HR MIN TEMP:  92; 6HR MAX TEMP:  97;

SAFFORD        SUNNY    102  39  11 SE9G25    29.92F
6HR MIN TEMP:  95; 6HR MAX TEMP: 103;

$$

AZZ020-021-025-026-031-250100-
SOUTHWEST ARIZONA

CITY           SKY/WX    TMP DP  RH WIND       PRES   REMARKS
YUMA           CLOUDY   115  39   8 W6        29.63F HX 108
6HR MIN TEMP: 106; 6HR MAX TEMP: 117;

$$

CAZ031-033-041-043-047-048-061-250100-
SOUTHERN CALIFORNIA

CITY           SKY/WX    TMP DP  RH WIND       PRES   REMARKS
DOWNTOWN L.A.  SUNNY     84  60  44 VRB6      29.75F
6HR MIN TEMP:  84; 6HR MAX TEMP:  92;

L.A. AIRPORT   MOSUNNY   78  62  57 W13       29.77F
6HR MIN TEMP:  77; 6HR MAX TEMP:  81;

SAN DIEGO      MOSUNNY   80  64  58 NW9       29.78F
6HR MIN TEMP:  76; 6HR MAX TEMP:  81;

BURBANK        SUNNY     94  53  25 S9        29.76F
6HR MIN TEMP:  90; 6HR MAX TEMP:  98;

ONTARIO        MOSUNNY  101  52  19 W16       29.76F
6HR MIN TEMP:  91; 6HR MAX TEMP: 105;

RIVERSIDE      SUNNY    100  49  17 W12G22    29.74F
6HR MIN TEMP:  91; 6HR MAX TEMP: 105;

PALM SPRINGS   SUNNY    115  43   9 SE10      29.65F HX 109
6HR MIN TEMP: 105; 6HR MAX TEMP: 116;

EL CENTRO NAS  PTSUNNY  116  49  11 SE13      29.58F HX 112
6HR MIN TEMP: 105; 6HR MAX TEMP: 117;

IMPERIAL       MOSUNNY  115  45   9 SE12      29.58F HX 110
6HR MIN TEMP: 104; 6HR MAX TEMP: 117;

BLYTHE         PTSUNNY  115  42   8 S10       29.63F HX 109
6HR MIN TEMP: 105; 6HR MAX TEMP: 115;

NEEDLES        SUNNY    116  40   8 W7        29.66F HX 109
6HR MIN TEMP: 109; 6HR MAX TEMP: 118;

$$

NVZ020-UTZ003-250100-
SOUTHERN NEVADA-UTAH

CITY           SKY/WX    TMP DP  RH WIND       PRES   REMARKS
LAS VEGAS      MOSUNNY  109  32   7 S15G24    29.72F HX 101
6HR MIN TEMP: 105; 6HR MAX TEMP: 111;

SALT LAKE CITY PTSUNNY   92  31  11 N13       29.96F
6HR MIN TEMP:  88; 6HR MAX TEMP:  93;

$$

NMZ009-TXZ055-250100-
NEW MEXICO-WEST TEXAS

CITY           SKY/WX    TMP DP  RH WIND       PRES   REMARKS
ALBUQUERQUE    MOSUNNY   91  40  16 SW13      30.16F
6HR MIN TEMP:  85; 6HR MAX TEMP:  92;

EL PASO        MOSUNNY   95  48  20 SE6       30.04F
6HR MIN TEMP:  88; 6HR MAX TEMP:  98;

$$


........................KEY........................
SKY/WX - SKY CONDITION/WEATHER
TMP    - TEMPERATURE IN FAHRENHEIT
DP     - DEW POINT IN FAHRENHEIT
RH     - RELATIVE HUMIDITY IN PERCENT
WIND   - DIRECTION AND SPEED IN MILES PER HOUR (MPH)
VRB    - VARIABLE WIND DIRECTION
PRES   - MEAN SEA LEVEL PRESSURE IN INCHES OF MERCURY
         F - FALLING PRESSURE   R - RISING PRESSURE
         S - STEADY PRESSURE
VSB    - VISIBILITY IN MILES
HX     - HEAT INDEX IN FAHRENHEIT
WCI    - WIND CHILL INDEX IN FAHRENHEIT
TC     - TEMPERATURE IN CELSIUS WHICH IS ALSO KNOWN AS
         TEMPERATURE IN CENTIGRADE
AFB    - AIR FORCE BASE
         LUKE AFB IS LUKE AIR FORCE BASE
         DAVIS-MONTHAN IS DAVIS-MONTHAN AIR FORCE BASE
NAS    - NAVAL AIR STATION
         EL CENTRO NAS IS EL CENTRO NAVAL AIR STATION
N/A    - NOT AVAILABLE


USA.gov is the U.S. government's official web portal to all federal, state and local government web resources and services.